Cloud_Cover
100 100 100 100 100 100 100 100 100 100 100 100 100 92 89 14 5 5 7 24 47 60 2 0 0 5 3 4 5 2 2 14 5 20 94 100 95 59 79 76 46 23 62 28 54 93 99 98 100 90 15 19 43 32
100 100 100 100 100 100 100 100 100 100 100 100 72 6 5 5 5 6 51 5 5 2 0 0 0 0 0 0 5 5 3 4 5 5 44 5 15 44 11 62 99 100 100 45 76 13 18 53 94 100 100 86 19 10
100 100 100 100 100 100 100 100 100 100 100 100 100 100 20 21 5 5 5 0 0 1 1 0 0 0 0 0 0 3 0 0 20 96 96 99 28 13 5 4 0 5 3 4 4 60 71 37 7 54 74 6 3 4
100 100 100 100 100 100 100 100 100 100 100 100 100 55 89 24 5 0 2 55 6 6 43 4 0 0 0 0 2 0 0 1 5 82 73 57 44 5 5 5 5 1 0 0 0 0 16 5 4 5 0 0 0 0
100 100 100 100 100 100 100 100 100 100 100 99 28 7 5 67 9 27 5 0 3 11 45 4 0 0 0 0 0 0 0 8 10 29 85 71 12 70 6 19 5 1 0 2 4 3 5 4 5 5 0 0 0 0
100 100 100 100 100 100 100 100 100 100 100 100 49 94 21 6 5 0 3 5 5 95 100 54 0 0 0 0 0 0 5 13 86 100 94 93 66 97 85 48 0 3 5 14 3 5 5 36 6 5 5 0 0 0
100 100 100 100 100 100 100 100 100 100 100 100 53 14 5 5 4 3 4 6 5 35 84 69 5 0 0 0 0 4 6 99 100 100 99 30 5 83 88 37 98 100 94 84 67 5 5 5 5 2 5 5 0 4
100 100 100 100 100 100 100 100 94 99 59 56 84 40 14 5 2 4 12 15 20 9 16 92 31 4 0 0 4 56 99 96 94 71 56 39 12 39 99 5 0 28 100 100 100 99 5 5 6 48 54 3 5 5
100 100 100 100 100 100 100 100 100 100 100 77 41 88 50 8 11 5 79 34 61 92 73 98 81 7 1 5 5 50 100 100 35 87 99 26 47 69 7 1 4 5 89 99 75 91 58 44 87 7 5 5 49 71
100 100 100 100 100 100 100 100 100 100 100 100 98 90 99 57 72 80 79 74 100 100 100 98 53 8 63 7 96 61 90 99 88 100 97 97 16 100 27 87 46 18 14 62 71 54 41 6 5 5 91 83 100 100
100 100 100 100 100 100 100 100 100 100 100 100 100 74 60 38 92 54 95 98 100 90 100 97 73 6 5 23 53 86 62 96 100 100 97 49 80 6 76 58 36 100 100 80 36 67 5 5 17 100 100 100 100 100
86 97 100 100 100 100 100 100 100 100 95 66 35 54 63 84 100 100 96 86 95 58 20 95 8 5 16 70 88 92 93 96 76 78 86 11 73 65 38 100 100 100 100 42 19 19 5 8 100 100 100 100 100 100
100 100 100 100 100 100 100 100 100 100 100 100 100 100 100 100 100 100 70 97 93 100 10 58 5 5 84 89 100 72 100 99 79 99 91 100 22 71 98 64 100 98 39 5 4 4 69 100 100 100 100 100 100 100
68 88 96 69 100 100 100 100 100 100 100 100 100 100 88 84 78 5 5 38 72 97 100 50 7 87 100 89 98 96 93 100 98 100 100 9 59 100 100 100 99 53 39 5 6 65 100 100 100 100 100 100 100 100
100 100 100 98 100 100 100 100 100 100 100 100 100 95 79 6 9 19 33 99 100 100 100 66 93 96 83 100 91 90 100 100 99 100 100 14 45 80 100 64 49 25 8 47 92 100 100 100 100 100 100 100 100 100
100 100 100 100 100 100 91 100 100 100 100 100 100 91 54 30 88 70 76 100 100 100 100 100 100 94 97 100 96 96 100 100 100 100 95 53 84 31 43 18 6 5 5 96 100 100 100 100 100 100 100 100 100 100
36 91 58 59 74 100 100 98 100 100 100 100 99 96 99 39 69 100 99 100 100 100 70 97 98 84 92 98 98 100 100 100 100 100 90 67 60 5 5 5 5 6 63 100 100 100 100 100 100 100 100 100 100 100
62 27 58 100 88 100 100 100 100 100 100 100 100 81 100 100 100 100 100 100 100 100 83 94 100 94 75 100 99 100 100 100 96 6 5 5 5 5 15 51 70 85 100 100 100 100 100 100 100 100 100 100 100 100
31 96 97 100 100 100 100 100 100 84 100 100 100 100 100 100 100 97 46 27 100 67 100 100 100 97 99 100 100 100 100 6 5 18 22 52 89 100 98 98 100 100 100 100 100 100 100 100 100 100 100 100 100 100
100 100 67 100 100 100 100 100 100 100 100 90 100 100 89 45 74 66 60 100 100 100 100 92 98 98 7 19 26 11 34 54 77 100 100 100 100 100 100 100 100 100 100 100 100 100 100 100 100 100 100 100 100 98
100 100 100 100 100 93 32 100 100 100 99 92 100 100 96 100 100 100 100 96 100 84 78 13 5 5 7 46 50 98 100 100 100 100 100 100 100 100 100 100 100 100 100 100 100 100 100 96 86 100 100 87 93 99
100 100 100 100 100 100 99 100 88 94 97 76 86 94 100 100 100 100 100 100 100 89 5 5 86 100 100 88 86 99 100 100 100 100 100 100 100 100 100 100 100 100 98 68 72 80 98 99 92 92 85 60 67 69
100 100 100 100 100 83 100 100 86 97 94 96 100 98 98 100 100 72 98 98 24 40 58 100 97 82 85 100 100 100 99 100 100 100 100 100 100 100 100 98 55 26 9 64 66 81 82 75 67 66 68 70 58 28
100 100 100 100 100 96 100 100 100 99 100 100 100 100 99 68 84 100 100 67 93 100 100 89 100 100 97 99 98 95 100 100 100 100 100 100 100 100 96 80 59 28 5 49 6 8 5 27 15 9 5 5 5 5
100 100 100 99 100 100 100 100 100 97 100 100 100 100 76 100 100 100 100 100 100 100 100 100 100 99 99 100 100 100 100 100 100 100 100 100 100 89 39 5 5 5 5 5 5 5 5 5 5 5 5 5 5 5
100 80 99 100 100 100 100 100 100 100 98 100 100 100 100 100 100 100 100 100 100 100 100 100 100 100 100 100 100 100 100 100 100 93 60 65 42 5 5 11 10 6 5 5 5 5 5 5 5 5 5 0 1 2
91 100 100 100 100 100 100 100 99 99 100 100 100 100 100 100 100 100 100 100 100 100 100 100 100 100 100 100 100 100 94 100 100 74 63 12 5 16 42 27 7 26 15 5 5 5 5 5 5 3 4 3 5 5
93 100 100 100 100 100 100 92 100 100 100 100 92 100 100 100 100 100 100 100 100 100 100 100 100 100 100 100 100 100 100 100 83 64 26 5 5 10 6 5 5 5 5 5 5 5 5 5 5 5 5 5 5 5
100 100 100 100 99 90 99 100 99 95 99 100 100 84 100 100 100 100 100 100 100 100 100 100 100 100 100 100 100 100 100 98 100 72 12 5 5 5 5 5 5 5 13 5 15 16 5 5 5 5 5 15 49 45
100 100 100 100 100 97 84 87 97 91 88 98 91 100 100 100 100 100 100 100 100 100 100 100 100 100 100 100 100 100 100 90 81 75 53 5 5 5 5 5 5 5 5 11 5 5 45 48 51 68 57 52 75 75
100 99 100 100 100 100 100 100 52 68 100 100 73 100 100 100 100 98 100 100 100 100 100 100 100 100 100 100 100 100 100 96 100 93 56 5 5 5 5 5 5 5 5 5 5 6 49 79 95 86 82 96 100 100
100 100 100 100 88 100 96 76 68 63 70 100 93 98 100 77 100 100 100 95 100 98 100 100 100 100 100 100 100 100 100 100 100 96 45 10 7 23 30 62 68 83 91 97 92 86 87 98 78 90 100 100 94 72
100 100 94 100 99 100 80 29 68 58 61 78 62 64 99 100 100 100 100 92 99 100 98 100 100 100 100 100 100 100 100 100 100 74 56 83 94 97 95 96 96 100 100 100 100 100 100 100 93 76 82 71 89 92